Joplin, MO

6:56 AM CDT on August 23, 2019 (GMT -0500)
Joplin Regional

Weather History for KJLN - June, 2019

Change the Weather History Date:

Thursday, June 6, 2019

  Actual Average Record
Temperature  
Mean Temperature 73 °F 73 °F  
Max Temperature 80 °F 83 °F 93 °F (1972)
Min Temperature 66 °F 62 °F 47 °F (2000)
Degree Days  
Heating Degree Days 0 0  
Month to date heating degree days 0 2  
Since 1 June heating degree days 0 2  
Since 1 July heating degree days 4415 4071  
Cooling Degree Days 8 8  
Month to date cooling degree days 56 45  
Year to date cooling degree days 209 225  
Since 1 June cooling degree days 56 45  
Growing Degree Days 23 (Base 50)    
Moisture  
Dew Point 66 °F    
Average Humidity 82    
Maximum Humidity 100    
Minimum Humidity 66    
Precipitation  
Precipitation 0.04 in 0.21 in 3.63 in (1974)
Month to date precipitation 0.38 1.23  
Year to date precipitation 28.53 19.18  
Sea Level Pressure  
Sea Level Pressure 29.79 in    
Wind  
Wind Speed 5 mph ()    
Max Wind Speed 16 mph    
Max Gust Speed 24 mph    
Visibility 9.8 miles    
Events Rain    
T = Trace of Precipitation, MM = Missing Value Source: Averaged Metar Reports

Daily Weather History Graph

Daily Weather History Graph

Search for Another Location

Airport or City:

Astronomy

Jun. 06, 2019 Rise Set
Actual Time 5:58 AM CDT 8:35 PM CDT
Civil Twilight 5:27 AM CDT 9:06 PM CDT
Nautical Twilight 4:49 AM CDT 9:44 PM CDT
Astronomical Twilight 4:07 AM CDT 10:26 PM CDT
Moon 9:07 AM CDT (6/6) 11:55 PM CDT (6/6)
Length of Visible Light 15h 38m
Length of Day
14h 37m
Waxing Crescent, 14% of the Moon is Illuminated
Jun 6
Waxing Crescent
Jun 10
First Quarter
Jun 17
Full
Jun 25
Last Quarter
Jul 2
New

Hourly Weather History & Observations

Time (CDT) Temp. Dew Point Humidity Pressure Visibility Wind Dir Wind Speed Gust Speed Precip Events Conditions
12:53 AM 69.1 °F 66.0 °F 90% 29.82 in 10.0 mi SSW 4.6 mph - N/A   Clear
1:53 AM 68.0 °F 66.0 °F 93% 29.82 in 10.0 mi Calm Calm - N/A   Scattered Clouds
2:25 AM 70.0 °F 66.9 °F 90% 29.87 in 10.0 mi ENE 9.2 mph - N/A   Overcast
2:53 AM 70.0 °F 66.9 °F 90% 29.83 in 10.0 mi NE 6.9 mph - N/A   Overcast
3:53 AM 69.1 °F 64.9 °F 87% 29.82 in 5.0 mi East 11.5 mph - 0.03 in Rain Light Rain
4:53 AM 66.9 °F 64.9 °F 93% 29.81 in 10.0 mi NE 3.5 mph - 0.01 in Rain Light Rain
5:53 AM 66.9 °F 64.9 °F 93% 29.81 in 10.0 mi Calm Calm - 0.00 in   Mostly Cloudy
6:53 AM 66.9 °F 66.0 °F 97% 29.80 in 10.0 mi Calm Calm - N/A   Clear
7:53 AM 68.0 °F 66.0 °F 93% 29.79 in 10.0 mi Calm Calm - N/A   Clear
8:53 AM 70.0 °F 66.0 °F 87% 29.80 in 10.0 mi Calm Calm - N/A   Overcast
9:53 AM 73.0 °F 66.0 °F 79% 29.81 in 10.0 mi Calm Calm - 0.00 in   Overcast
10:53 AM 75.9 °F 66.9 °F 74% 29.80 in 10.0 mi East 10.4 mph - N/A   Clear
11:53 AM 73.9 °F 66.0 °F 76% 29.80 in 10.0 mi Variable 4.6 mph - N/A   Scattered Clouds
12:53 PM 75.0 °F 66.0 °F 73% 29.80 in 10.0 mi East 4.6 mph - 0.00 in Rain Light Rain
1:53 PM 77.0 °F 66.0 °F 69% 29.79 in 10.0 mi NE 6.9 mph - 0.00 in   Partly Cloudy
2:53 PM 78.1 °F 66.0 °F 66% 29.78 in 10.0 mi NE 12.7 mph - N/A   Partly Cloudy
3:53 PM 75.9 °F 66.9 °F 74% 29.76 in 10.0 mi ENE 9.2 mph - 0.00 in Rain Light Rain
4:53 PM 77.0 °F 66.0 °F 69% 29.74 in 10.0 mi NE 11.5 mph 19.6 mph 0.00 in   Overcast
5:53 PM 77.0 °F 66.0 °F 69% 29.73 in 10.0 mi NE 8.1 mph - N/A   Mostly Cloudy
6:53 PM 75.9 °F 64.9 °F 69% 29.74 in 10.0 mi NE 9.2 mph - N/A   Mostly Cloudy
7:38 PM 71.1 °F 64.0 °F 78% 29.79 in 10.0 mi ESE 11.5 mph - N/A   Mostly Cloudy
7:53 PM 70.0 °F 64.0 °F 81% 29.77 in 10.0 mi ESE 6.9 mph - N/A   Overcast
8:53 PM 70.0 °F 64.9 °F 84% 29.78 in 10.0 mi Variable 5.8 mph - N/A   Overcast
8:56 PM 70.0 °F 64.0 °F 81% 29.81 in 10.0 mi ENE 3.5 mph - N/A   Overcast
9:07 PM 70.0 °F 64.9 °F 84% 29.81 in 10.0 mi Calm Calm - N/A   Overcast
9:42 PM 70.0 °F 64.9 °F 84% 29.81 in 10.0 mi Variable 3.5 mph - N/A   Mostly Cloudy
10:53 PM 69.1 °F 64.9 °F 87% 29.78 in 10.0 mi NE 3.5 mph - N/A   Partly Cloudy
11:53 PM 68.0 °F 64.9 °F 90% 29.77 in 10.0 mi NE 3.5 mph - 0.00 in   Clear